Location: Prairie Dale
(45.6972°N, 104.5033°W)
Time: 20:01:43
(UTC+00:00)

QB50P2 - Visible Passes

Search period start: 26 June 2022 00:00
Search period end: 06 July 2022 00:00
Orbit: 589 x 607 km, 97.9° (Epoch: 26 June)

Date Brightness Start Highest point End Pass type
(mag) Time Alt. Az. Time Alt. Az. Time Alt. Az.
26 Jun ? 07:19:19 10° NE 07:22:01 16° E 07:23:11 15° ESE visible
26 Jun ? 08:53:52 10° N 08:57:57 49° WNW 08:59:54 27° SW visible
27 Jun ? 07:29:22 10° NE 07:32:36 21° E 07:33:46 19° ESE visible
27 Jun ? 09:04:27 10° N 09:08:23 39° WNW 09:10:29 23° WSW visible
28 Jun ? 07:39:33 10° NE 07:43:09 26° E 07:44:21 23° ESE visible
28 Jun ? 09:15:04 10° N 09:18:48 31° WNW 09:21:03 19° WSW visible
29 Jun ? 07:49:49 10° NNE 07:53:41 33° E 07:54:55 28° SE visible
29 Jun ? 09:25:45 10° NNW 09:29:12 25° WNW 09:31:38 15° WSW visible
30 Jun ? 08:00:08 10° NNE 08:04:12 43° E 08:05:29 33° SE visible
30 Jun ? 09:36:29 10° NNW 09:39:34 20° WNW 09:42:12 12° WSW visible
01 Jul ? 08:10:31 10° NNE 08:14:41 56° E 08:16:03 38° SSE visible
01 Jul ? 09:47:19 10° NNW 09:49:55 16° WNW 09:52:33 10° W visible
02 Jul ? 08:20:55 10° NNE 08:25:10 73° ESE 08:26:37 40° S visible
02 Jul ? 09:58:19 10° NNW 10:00:16 13° WNW 10:02:13 10° W visible
03 Jul ? 08:31:22 10° NNE 08:35:38 87° WNW 08:37:10 39° SSW visible
03 Jul ? 10:09:52 10° NW 10:10:35 10° WNW 10:11:18 10° WNW visible
04 Jul ? 07:08:14 10° ENE 07:09:59 12° E 07:11:01 11° ESE visible
04 Jul ? 08:41:51 10° N 08:46:05 68° WNW 08:47:43 36° SW visible
05 Jul ? 07:17:56 10° NE 07:20:32 16° E 07:21:33 15° ESE visible
05 Jul ? 08:52:22 10° N 08:56:30 52° WNW 08:58:16 31° SW visible
